Powrót do katalogu

COSMOS 2251 DEB

AktywnyLEO
NORAD 47048·DEBRIS·🇷🇺 Russia

Wystrzelony Jun 16, 1993 z Plesetsk Cosmodrome

Loading…

Następne Przeloty (najbliższe 24 godziny)

TLE

ŚwieżeSource: Space-Track

Epoka: Sep 14, 2026, 10:13 UTC

1 47048U 93036BXC 26257.42606573  .00002663  00000-0  55913-3 0  9992
2 47048  73.9772 156.2847 0129940 277.6002 201.2111 14.54992076636967

Śledź COSMOS 2251 DEB w czasie rzeczywistym z AllMySat

Download on the App Store